Torna al catalogo

FENGYUN 1C DEB

AttivoSSO
NORAD 31244·DEBRIS·🇨🇳 China

Lanciato May 10, 1999 da Taiyuan Satellite Launch Center

Loading…

Prossimi Passaggi (prossime 24 ore)

TLE

In scadenzaSource: Space-Track

Epoca: Sep 5, 2026, 09:44 UTC

1 31244U 99025BMA 26248.40561761  .00000602  00000-0  37186-3 0  9997
2 31244  99.0050 316.0461 0102431 150.4338 210.2676 14.06587887613889

Traccia FENGYUN 1C DEB in tempo reale con AllMySat

Download on the App Store